Location: Unspecified
(0.0000°N, 0.0000°E)
Time: 04:33:18
(UTC+00:00)

AAUSAT CUBESAT 2 - Pass Details

Date: 18 July 2020
Orbit: 574 x 589 km, 97.5° (Epoch: 13 August)

Event Time Altitude Azimuth Distance (km) Brightness Sun altitude
Rises 04:51:32 0° 42° (NE) 2,803 ? -17.4°
Reaches altitude 10° 04:54:26 10° 64° (ENE) 1,904 ? -16.7°
Maximum altitude 04:56:55 16° 102° (ESE) 1,573 ? -16.2°
Drops below altitude 10° 04:59:24 10° 139° (SE) 1,905 ? -15.6°
Sets 05:02:17 0° 161° (SSE) 2,804 ? -14.9°
